TimeCST,TemperatureF,Dew PointF,Humidity,Sea Level PressureIn,VisibilityMPH,Wind Direction,Wind SpeedMPH,Gust SpeedMPH,PrecipitationIn,Events,Conditions,WindDirDegrees,DateUTC
12:53 AM,37.9,36.0,93,29.72,10.0,Calm,Calm,-,N/A,,Clear,0,2012-12-16 06:53:00
1:53 AM,36.0,35.1,97,29.70,10.0,Calm,Calm,-,N/A,,Clear,0,2012-12-16 07:53:00
2:53 AM,36.0,35.1,97,29.71,10.0,Calm,Calm,-,N/A,,Clear,0,2012-12-16 08:53:00
3:53 AM,35.1,34.0,96,29.71,10.0,Calm,Calm,-,N/A,,Clear,0,2012-12-16 09:53:00
4:53 AM,30.9,30.9,100,29.70,10.0,Calm,Calm,-,N/A,,Clear,0,2012-12-16 10:53:00
5:53 AM,28.9,28.9,100,29.70,10.0,Calm,Calm,-,N/A,,Clear,0,2012-12-16 11:53:00
6:53 AM,30.0,28.9,96,29.73,10.0,Calm,Calm,-,N/A,,Clear,0,2012-12-16 12:53:00
7:53 AM,28.9,28.0,96,29.73,10.0,Calm,Calm,-,N/A,,Clear,0,2012-12-16 13:53:00
8:53 AM,37.0,35.1,93,29.74,10.0,South,3.5,-,N/A,,Clear,170,2012-12-16 14:53:00
10:53 AM,51.1,39.0,63,29.71,10.0,West,4.6,-,N/A,,Clear,260,2012-12-16 16:53:00
11:53 AM,55.9,36.0,47,29.69,10.0,West,8.1,-,N/A,,Clear,260,2012-12-16 17:53:00
12:53 PM,59.0,35.1,41,29.65,10.0,Variable,4.6,-,N/A,,Clear,0,2012-12-16 18:53:00
1:53 PM,59.0,34.0,39,29.64,10.0,West,8.1,17.3,N/A,,Clear,280,2012-12-16 19:53:00
2:53 PM,59.0,34.0,39,29.65,10.0,West,10.4,19.6,N/A,,Clear,270,2012-12-16 20:53:00
4:53 PM,45.0,39.0,80,29.71,10.0,Calm,Calm,-,N/A,,Clear,0,2012-12-16 22:53:00
5:53 PM,42.1,37.9,85,29.72,9.0,Calm,Calm,-,N/A,,Clear,0,2012-12-16 23:53:00
6:53 PM,41.0,37.9,89,29.74,8.0,Calm,Calm,-,N/A,,Clear,0,2012-12-17 00:53:00
7:53 PM,41.0,37.9,89,29.76,7.0,Calm,Calm,-,N/A,,Clear,0,2012-12-17 01:53:00
8:53 PM,42.1,37.9,85,29.76,7.0,North,4.6,-,N/A,,Clear,350,2012-12-17 02:53:00
9:37 PM,42.8,37.4,81,29.80,8.0,North,5.8,-,N/A,,Mostly Cloudy,350,2012-12-17 03:37:00
9:53 PM,42.1,37.9,85,29.81,8.0,Calm,Calm,-,N/A,,Overcast,0,2012-12-17 03:53:00
10:53 PM,41.0,37.0,86,29.78,7.0,NNW,3.5,-,N/A,,Overcast,340,2012-12-17 04:53:00
11:36 PM,37.4,33.8,87,29.78,6.0,North,5.8,-,N/A,,Scattered Clouds,360,2012-12-17 05:36:00